Location: East Guldeford
(50.9500°N, 0.7500°E)
Time: 18:34:14
(UTC+00:00)

Cosmos 1743 - Pass Details

Date: 12 May 2021
Orbit: 510 x 525 km, 82.6° (Epoch: 15 June)

Event Time Altitude Azimuth Distance (km) Brightness Sun altitude
Rises 22:28:33 0° 346° (NNW) 2,654 8.0 -18.2°
Reaches altitude 10° 22:30:44 10° 341° (NNW) 1,763 6.7 -18.3°
Maximum altitude 22:34:30 53° 265° (W) 646 3.2 -18.5°
Enters shadow 22:35:42 37° 210° (SSW) 832 3.4 -18.6°
